Regional Weather Roundup
Issued by NWS Sterling, VA

Home | Current Version | Previous Version | Graphics & Text | Print | Product List | Glossary On
Versions: 1 2 3 4 5 6 7 8 9 10 11 12 13 14 15 16 17 18 19 20 21 22 23 24 25 26 27 28 29 30 31 32 33 34 35 36 37 38 39 40 41 42 43 44 45 46 47 48 49 50
000
ASUS41 KLWX 282310
RWRLWX

REGIONAL WEATHER ROUNDUP
NATIONAL WEATHER SERVICE BALTIMORE MD/WASHINGTON DC
700 PM EDT SUN AUG 28 2016

Note: "FAIR" indicates few or no clouds below 12,000 feet
with no significant weather and/or obstructions to visibility.
 TC=TEMPERATURE CELSIUS

 * =Non NWS site. Station does not report precipitation (e.g. rain,
    snow, etc.), thunder, or fog.

DCZ001-MDZ009-015-VAZ040>042-051-053>054-290000-
WASHINGTON METRO

CITY           SKY/WX    TMP DP  RH WIND       PRES   REMARKS
WASHINGTON NAT PTCLDY    85  65  51 SE12      30.15F
DULLES         PTCLDY    85  58  39 SE10      30.14F
ANDREWS AFB    CLEAR     82  65  55 E6        30.15F
FT BELVOIR     CLEAR     83  65  54 VRB3      30.15S
QUANTICO       CLEAR     85  66  53 SE7       30.14
COLLEGE PARK*  CLEAR     82  64  54 E5        30.15S
LEESBURG*      CLEAR     86  63  45 E7        30.15S
MANASSAS*      CLEAR     82  66  57 SE5       30.14F
GAITHERSBURG*  CLEAR     81  63  54 E3        30.20S

$$

MDZ006>007-011-014-290000-
BALTIMORE METRO

CITY           SKY/WX    TMP DP  RH WIND       PRES   REMARKS
BWI AIRPORT    PTCLDY    84  64  50 SE6       30.15F
MD SCIENCE CTR   N/A     85  63  47 MISG      30.15F
MARTIN STATE   CLEAR     84  70  61 E3        30.16F
ANNAPOLIS      CLEAR     84  69  60 NE5       30.14F
FORT MEADE*    CLEAR    N/A N/A N/A E5        30.17F

$$

MDZ012-015-019>023-290000-
MARYLAND EASTERN SHORE

CITY           SKY/WX    TMP DP  RH WIND       PRES   REMARKS
OCEAN CITY     CLEAR     79  68  69 E7        30.17R
SALISBURY      CLEAR     79  64  60 E8        30.16S
BAY BRIDGE AP* CLEAR     84  66  54 SE7       30.15F
CAMBRIDGE*     CLEAR     81  63  54 E3        30.15S
EASTON*        PTCLDY    84  68  58 E7        30.20R

$$

MDZ017>025-290000-
SOUTHERN MARYLAND

CITY           SKY/WX    TMP DP  RH WIND       PRES   REMARKS
PATUXENT RIVER CLEAR     81  66  60 E5        30.14F
ST INIGOES     CLEAR     83  67  58 NE5       30.14S
LEONARDTOWN*   CLEAR     81  64  57 CALM      30.17S

$$

MDZ003>005-290000-
NORTH CENTRAL MARYLAND

CITY           SKY/WX    TMP DP  RH WIND       PRES   REMARKS
FREDERICK*     CLEAR     84  66  54 VRB3      30.17F
HAGERSTOWN APT CLEAR     87  64  46 S8        30.15F

$$

MDZ501>502-290000-
WESTERN MARYLAND

CITY           SKY/WX    TMP DP  RH WIND       PRES   REMARKS
OAKLAND*       PTCLDY    75  68  78 S5        30.26F
CUMBERLAND*    PTCLDY    88  64  45 CALM      30.16S

$$

VAZ025>031-290000-
SHENANDOAH VALLEY

CITY           SKY/WX    TMP DP  RH WIND       PRES   REMARKS
WINCHESTER*    CLEAR     86  64  48 S7        30.15F
FRONT ROYAL*   FAIR      82  68  61 SE3       30.14F
LURAY*         FAIR      84  66  54 E8        30.15F
NEW MARKET*    FAIR     N/A N/A N/A CALM      30.13F
STAUNTON*      CLEAR     83  64  52 SE3       30.19F
WAYNESBORO*    FAIR      82  61  48 SE6       30.19F

$$

WVZ021-048>050-054>055-290000-
EASTERN WEST VIRGINIA PANHANDLE

CITY           SKY/WX    TMP DP  RH WIND       PRES   REMARKS
MARTINSBURG    CLEAR     84  66  54 E6        30.14F
PETERSBURG*    CLEAR     88  69  53 SE5       30.13S HX  92

$$

VAZ036>039-050-290000-
CENTRAL FOOTHILLS

CITY           SKY/WX    TMP DP  RH WIND       PRES   REMARKS
CHARLOTTESVILL CLEAR     86  66  51 SE6       30.15S
CULPEPER*      CLEAR     83  68  60 CALM      30.15S
ORANGE*        NOT AVBL
GORDONSVILLE*  NOT AVBL
WARRENTON*     FAIR      83  64  51 E5        30.14F

$$

VAZ055>057-290000-
NORTH AND CENTRAL PIEDMONT

CITY           SKY/WX    TMP DP  RH WIND       PRES   REMARKS
FREDERICKSBRG*   N/A     85  65  51 E5        30.13S
STAFFORD*      CLEAR     84  62  46 SE3       30.18S

$$

NCZ024-NYZ072-PAZ021-071-VAZ022-071-290000-
OTHER REGIONAL OBSERVATIONS

CITY           SKY/WX    TMP DP  RH WIND       PRES   REMARKS
NEW YORK CITY  CLEAR     79  61  53 VRB6      30.19F
PHILADELPHIA   PTCLDY    86  67  52 SW12      30.15F
PITTSBURGH     MOSUNNY   84  69  60 NW23G40   30.15R
ROANOKE        PTCLDY    85  55  35 SE8       30.18S
RICHMOND       MOCLDY    83  64  52 NE6       30.14S
RALEIGH        CLOUDY    86  66  51 E12       30.11F

$$

ANZ530>537-290000-
MARINE OBSERVATIONS

STATION/POSITION TIME  TEMP    WIND        PRES
                       AIR SEA DIR/SP/G
                 (UTC) (F)     (DEG/KT/KT) (MB)
THOMAS PT LIGHT  2300   83 84   40/  8/  9 1022.1F
BALT KEY BRIDGE  2224   84     130/  4/  5 1021.0
COVE POINT       2224   84      70/  4/  5 1021.4
LEWISETTA        2236      86                N/A
SOLOMONS ISLAND  2236      85                N/A
PINEY POINT      2218          110/ 10/ 11   N/A

$$




USA.gov is the U.S. government's official web portal to all federal, state and local government web resources and services.